STARLINK-11477, 62471

Orbit data source: Space-Track

STARLINK-11477, 62471 is a payload satellite owned by SpaceX/Seattle (US) in LEO that was launched on Tue, 31 Dec 2024 UTC via an FALCON 9 launch vehicle from the Air Force Eastern Test Range (AFETR). Payload-class satellites include a variety of spacecraft equipped with specific instruments for various scientific and technological missions. These include communications satellites like Starlink; space stations such as the ISS; scientific satellites like the Hubble; Earth observation satellites from companies like Planet Labs, Umbra, and HawkEye 360; GPS; miniature CubeSats for education and research; and military/defense satellites.

Loading next visibility...
Identifier
62471, 2024-254K
Orbit
LEO
Last TLE update
14 hours ago
Origin
Manufacturer
SpaceX/Seattle
Mission
Operational Commercial Communications
Bus & Motor
STARLINK V2M, Unknown motor
Mass
730 kg wet, ~700 kg dry
Launch date (UTC)
2024-12-31 (6 months ago)
Launch vehicle
FALCON 9
Launch site
Air Force Eastern Test Range (AFETR)
Object type
Payload
Rocket body
Debris
Shape & HBR
Box + 2 Pan, 29 m
Radar Cross Section
36.964 m², Large (>1 m²)

Expand to show TLE details & history

TLE from 14 hours ago
0 STARLINK-11477
1 62471U 24254K   25181.59988858  .00162904  00000-0  12467-2 0  9998
2 62471  42.9991 302.5312 0002968 295.5794  64.4767 15.70868349 29745
Epoch: 2025-06-30T14:23Z
TLE epoch observation values (Epoch: 2025-06-30T14:23:50.373Z)
Latitude
0.00001°
Longitude
167.66395°
Altitude
355.324 km
Speed
7.698 km/s
True Right ascension
20h 10m 07s
True Declination
0° 00' 00"
Sunlit
Object was in full shadow at epoch
Visualization orbit readout
Latitude
39.55872°
Longitude
-134.11°
Altitude
359.471 km
Speed
7.699 km/s
Apparent Right ascension
01h 58m 54s
Apparent Declination
1° 17' 56"
Sunlit
Object is in daylight
Visualization observer readout
Local Sidereal Time
16:02:41
Azimuth
42.17° NE
Elevation
-40.023°
Doppler factor
1
Orbital elements
Apogee altitude
360.395 km
Perigee altitude
356.396 km
Semi-major axis
6,736.533 km
Eccentricity
0.0003
Inclination
42.9991°
RAAN
302.5312°
Arg. of periapsis
295.5794°
True anomaly
Unknown
Mean anomaly
64.4767°
Eccentric anomaly
Unknown
Mean motion
3.92544 °/min
Orbital period
91.71 mins
BSTAR
0.0012467
Loading maneuver chart data...
Loading SW <> Apogee altitude chart data...
Loading historical data...
Loading historical data...
Loading historical data...
Loading historical data...
Loading historical data...
Loading historical data...
Loading historical data...

STARLINK-11477 Visibility forecast

Observer location: undefined°, undefined°

Span
Click to sort rows by Start time (UTC) header in descending order
Start Az.
Max El. time (UTC)
Max El. Az.
Max El.
End time (UTC)
End Az.
4 mins2025-07-01 12:01:13.434Z229.502° WSW2025-07-01 12:02:13.434Z173.697° S42.13°2025-07-01 12:05:13.434Z75.374° E
4 mins2025-07-01 13:37:13.434Z295.787° NW2025-07-01 13:38:13.434Z335.098° NNW34.611°2025-07-01 13:41:13.434Z69.468° E
4 mins2025-07-01 15:13:13.434Z298.753° NW2025-07-01 15:15:13.434Z52.474° ENE38.087°2025-07-01 15:17:13.434Z91.433° ESE
4 mins2025-07-01 16:49:13.434Z261.599° W2025-07-01 16:51:13.434Z189.285° SSW27.256°2025-07-01 16:53:13.434Z144.705° SSE
|